UAL1717 KLAX-KSAN

Flight info

Callsign UAL1717
Flight time 0h 28m
Altitude 13000
Route LAXX1 MZB
Aircraft A319/M-SDE3FGHIRWY/LB1

Departure

Time 2026-04-23 03:05
Airport Los Angeles International Airport (KLAX)

Arrival

Time 2026-04-23 03:34
Airport San Diego International Airport (KSAN)
Time Latitude Longitude Altitude Speed Heading
2026-04-23 02:47 33.94159 -118.40020 94 ft 0 kts 90°
2026-04-23 02:54 33.94159 -118.40035 97 ft 1 kts 91°
2026-04-23 02:54 33.94159 -118.40050 97 ft 1 kts 92°
2026-04-23 02:55 33.94160 -118.40065 97 ft 1 kts 91°
2026-04-23 02:55 33.94160 -118.40080 97 ft 2 kts 126°
2026-04-23 02:55 33.94170 -118.40088 96 ft 1 kts 169°
2026-04-23 02:55 33.94176 -118.40089 98 ft 0 kts 171°
2026-04-23 02:56 33.94174 -118.40089 96 ft 0 kts 171°
2026-04-23 02:56 33.94170 -118.40088 94 ft 2 kts 171°
2026-04-23 02:57 33.94137 -118.40082 94 ft 7 kts 172°
2026-04-23 02:57 33.94122 -118.40079 93 ft 0 kts 172°
2026-04-23 02:57 33.94121 -118.40079 93 ft 1 kts 172°
2026-04-23 02:57 33.94096 -118.40075 93 ft 6 kts 172°
2026-04-23 02:58 33.94067 -118.40070 93 ft 0 kts 172°
2026-04-23 02:58 33.94056 -118.40068 95 ft 4 kts 172°
2026-04-23 02:58 33.93995 -118.40058 95 ft 10 kts 173°
2026-04-23 02:58 33.93970 -118.40055 96 ft 2 kts 173°
2026-04-23 02:59 33.93963 -118.40054 95 ft 0 kts 173°
2026-04-23 02:59 33.93961 -118.40053 96 ft 2 kts 173°
2026-04-23 02:59 33.93951 -118.40052 94 ft 2 kts 173°
2026-04-23 03:00 33.93945 -118.40051 94 ft 0 kts 174°
2026-04-23 03:00 33.93933 -118.40050 97 ft 3 kts 174°
2026-04-23 03:00 33.93884 -118.40001 96 ft 18 kts 105°
2026-04-23 03:00 33.93897 -118.39812 98 ft 25 kts 83°
2026-04-23 03:01 33.93920 -118.39584 95 ft 29 kts 83°
2026-04-23 03:01 33.93948 -118.39321 93 ft 34 kts 83°
2026-04-23 03:01 33.93970 -118.39117 94 ft 23 kts 82°
2026-04-23 03:01 33.93989 -118.38906 94 ft 27 kts 83°
2026-04-23 03:02 33.94015 -118.38666 96 ft 29 kts 82°
2026-04-23 03:02 33.94029 -118.38522 96 ft 18 kts 83°
2026-04-23 03:02 33.94044 -118.38377 97 ft 11 kts 81°
2026-04-23 03:02 33.94038 -118.38339 98 ft 0 kts 127°
2026-04-23 03:03 33.94036 -118.38328 98 ft 4 kts 112°
2026-04-23 03:03 33.94032 -118.38326 98 ft 1 kts 146°
2026-04-23 03:03 33.94024 -118.38321 97 ft 2 kts 156°
2026-04-23 03:04 33.93980 -118.38317 98 ft 10 kts 175°
2026-04-23 03:04 33.93948 -118.38372 99 ft 6 kts 263°
2026-04-23 03:04 33.93948 -118.38373 99 ft 0 kts 263°
2026-04-23 03:04 33.93943 -118.38420 99 ft 27 kts 263°
2026-04-23 03:05 33.93890 -118.38933 96 ft 94 kts 263°
2026-04-23 03:05 33.93785 -118.39942 108 ft 146 kts 263°
2026-04-23 03:05 33.93617 -118.41137 825 ft 133 kts 253°
2026-04-23 03:05 33.93199 -118.42004 1683 ft 117 kts 237°
2026-04-23 03:06 33.92912 -118.42948 1945 ft 129 kts 271°
2026-04-23 03:06 33.92844 -118.44106 2279 ft 151 kts 261°
2026-04-23 03:06 33.92378 -118.45361 2586 ft 179 kts 241°
2026-04-23 03:06 33.91633 -118.46691 3005 ft 204 kts 236°
2026-04-23 03:07 33.90750 -118.48153 3485 ft 228 kts 237°
2026-04-23 03:07 33.89748 -118.49766 4000 ft 253 kts 234°
2026-04-23 03:07 33.88647 -118.51505 4694 ft 268 kts 233°
2026-04-23 03:07 33.87507 -118.53286 4932 ft 270 kts 233°
2026-04-23 03:08 33.86358 -118.55073 4992 ft 270 kts 234°
2026-04-23 03:08 33.85209 -118.56858 5002 ft 270 kts 233°
2026-04-23 03:08 33.84057 -118.58636 5003 ft 270 kts 233°
2026-04-23 03:08 33.82539 -118.59991 5508 ft 279 kts 202°
2026-04-23 03:09 33.80612 -118.60375 6545 ft 284 kts 184°
2026-04-23 03:09 33.78621 -118.60381 7491 ft 288 kts 182°
2026-04-23 03:09 33.76633 -118.60322 8412 ft 292 kts 180°
2026-04-23 03:09 33.74625 -118.59750 9277 ft 305 kts 158°
2026-04-23 03:10 33.72882 -118.58216 10103 ft 319 kts 134°
2026-04-23 03:10 33.71543 -118.56042 10447 ft 343 kts 125°
2026-04-23 03:10 33.70178 -118.53567 10692 ft 367 kts 124°
2026-04-23 03:10 33.68762 -118.50914 10992 ft 385 kts 123°
2026-04-23 03:11 33.67309 -118.48170 11561 ft 393 kts 124°
2026-04-23 03:11 33.65861 -118.45450 12272 ft 393 kts 123°
2026-04-23 03:11 33.64384 -118.42696 12804 ft 397 kts 124°
2026-04-23 03:11 33.62859 -118.39883 12981 ft 405 kts 124°
2026-04-23 03:12 33.61292 -118.37010 13023 ft 411 kts 125°
2026-04-23 03:12 33.59712 -118.34128 13029 ft 422 kts 125°
2026-04-23 03:12 33.58074 -118.31149 13031 ft 431 kts 125°
2026-04-23 03:12 33.56419 -118.28133 13025 ft 433 kts 125°
2026-04-23 03:13 33.54764 -118.25110 13024 ft 434 kts 124°
2026-04-23 03:13 33.53107 -118.22081 13024 ft 435 kts 124°
2026-04-23 03:13 33.51448 -118.19055 13029 ft 435 kts 124°
2026-04-23 03:13 33.49787 -118.16026 13028 ft 435 kts 124°
2026-04-23 03:14 33.48125 -118.12999 13021 ft 435 kts 124°
2026-04-23 03:14 33.46464 -118.09976 13017 ft 435 kts 124°
2026-04-23 03:14 33.44800 -118.06953 13025 ft 435 kts 125°
2026-04-23 03:14 33.43136 -118.03929 13036 ft 435 kts 125°
2026-04-23 03:15 33.41476 -118.00911 13036 ft 435 kts 125°
2026-04-23 03:15 33.39810 -117.97882 13014 ft 435 kts 124°
2026-04-23 03:15 33.38147 -117.94864 13024 ft 435 kts 124°
2026-04-23 03:15 33.36481 -117.91841 13027 ft 435 kts 124°
2026-04-23 03:16 33.34814 -117.88827 13031 ft 435 kts 124°
2026-04-23 03:16 33.33142 -117.85808 13035 ft 435 kts 125°
2026-04-23 03:16 33.30360 -117.80797 13039 ft 435 kts 125°
2026-04-23 03:17 33.28686 -117.77787 13041 ft 435 kts 125°
2026-04-23 03:17 33.27011 -117.74774 13040 ft 435 kts 125°
2026-04-23 03:17 33.25337 -117.71760 13042 ft 435 kts 125°
2026-04-23 03:17 33.23665 -117.68745 13035 ft 435 kts 125°
2026-04-23 03:18 33.21994 -117.65733 13028 ft 435 kts 124°
2026-04-23 03:18 33.20325 -117.62726 13032 ft 435 kts 124°
2026-04-23 03:18 33.18653 -117.59715 13035 ft 435 kts 124°
2026-04-23 03:18 33.16982 -117.56713 13035 ft 434 kts 124°
2026-04-23 03:19 33.15305 -117.53713 13034 ft 434 kts 125°
2026-04-23 03:19 33.13625 -117.50717 13037 ft 434 kts 125°
2026-04-23 03:19 33.11928 -117.47693 13005 ft 441 kts 125°
2026-04-23 03:19 33.10248 -117.44692 12828 ft 430 kts 125°
2026-04-23 03:20 33.08594 -117.41735 12573 ft 426 kts 125°
2026-04-23 03:20 33.06955 -117.38810 12327 ft 423 kts 125°
2026-04-23 03:20 33.05184 -117.36037 11898 ft 417 kts 134°
2026-04-23 03:20 33.03038 -117.33735 11208 ft 414 kts 146°
2026-04-23 03:21 33.00596 -117.32029 10929 ft 398 kts 158°
2026-04-23 03:21 32.98077 -117.30869 10815 ft 380 kts 165°
2026-04-23 03:21 32.95627 -117.29842 10694 ft 367 kts 164°
2026-04-23 03:21 32.93267 -117.28844 10571 ft 352 kts 164°
2026-04-23 03:22 32.91027 -117.27893 10445 ft 331 kts 164°
2026-04-23 03:22 32.88911 -117.26997 10275 ft 316 kts 165°
2026-04-23 03:22 32.86855 -117.26135 9901 ft 310 kts 165°
2026-04-23 03:22 32.84843 -117.25295 9704 ft 307 kts 165°
2026-04-23 03:23 32.82836 -117.24430 9320 ft 306 kts 160°
2026-04-23 03:23 32.81067 -117.23034 8939 ft 307 kts 137°
2026-04-23 03:23 32.79835 -117.20973 8561 ft 308 kts 114°
2026-04-23 03:23 32.79315 -117.18530 8180 ft 305 kts 97°
2026-04-23 03:24 32.79019 -117.16040 7823 ft 304 kts 97°
2026-04-23 03:24 32.78734 -117.13601 7462 ft 300 kts 97°
2026-04-23 03:24 32.78423 -117.11175 7102 ft 295 kts 99°
2026-04-23 03:24 32.78032 -117.08794 6746 ft 291 kts 100°
2026-04-23 03:25 32.77628 -117.06446 6378 ft 288 kts 101°
2026-04-23 03:25 32.77228 -117.04127 6067 ft 283 kts 101°
2026-04-23 03:25 32.76844 -117.01899 6035 ft 270 kts 101°
2026-04-23 03:25 32.76466 -116.99725 5894 ft 267 kts 101°
2026-04-23 03:26 32.76101 -116.97577 5559 ft 264 kts 101°
2026-04-23 03:26 32.75740 -116.95444 5216 ft 262 kts 101°
2026-04-23 03:26 32.75384 -116.93340 5031 ft 259 kts 101°
2026-04-23 03:26 32.74977 -116.91254 5028 ft 260 kts 111°
2026-04-23 03:27 32.73956 -116.89517 4973 ft 257 kts 141°
2026-04-23 03:27 32.72397 -116.88591 4591 ft 250 kts 172°
2026-04-23 03:27 32.70683 -116.88590 4183 ft 247 kts 188°
2026-04-23 03:27 32.68982 -116.88869 3852 ft 246 kts 196°
2026-04-23 03:28 32.67503 -116.89812 3829 ft 242 kts 228°
2026-04-23 03:28 32.66672 -116.91496 3827 ft 238 kts 255°
2026-04-23 03:28 32.66453 -116.93384 3823 ft 229 kts 276°
2026-04-23 03:28 32.66790 -116.95164 3822 ft 213 kts 289°
2026-04-23 03:29 32.67242 -116.96775 3829 ft 199 kts 293°
2026-04-23 03:29 32.67790 -116.98210 3840 ft 186 kts 299°
2026-04-23 03:29 32.68406 -116.99551 3828 ft 182 kts 299°
2026-04-23 03:29 32.68987 -117.00842 3822 ft 171 kts 294°
2026-04-23 03:30 32.69394 -117.02104 3671 ft 160 kts 290°
2026-04-23 03:30 32.69675 -117.03393 3472 ft 162 kts 284°
2026-04-23 03:30 32.69924 -117.04700 3277 ft 161 kts 284°
2026-04-23 03:30 32.70196 -117.05981 3066 ft 159 kts 287°
2026-04-23 03:31 32.70515 -117.07236 2889 ft 158 kts 289°
2026-04-23 03:31 32.70831 -117.08473 2810 ft 153 kts 289°
2026-04-23 03:31 32.71125 -117.09683 2509 ft 152 kts 288°
2026-04-23 03:31 32.71416 -117.10860 2111 ft 145 kts 289°
2026-04-23 03:32 32.71706 -117.11979 1782 ft 138 kts 289°
2026-04-23 03:32 32.71960 -117.13074 1427 ft 139 kts 286°
2026-04-23 03:32 32.72211 -117.14187 1071 ft 142 kts 287°
2026-04-23 03:32 32.72486 -117.15313 767 ft 142 kts 288°
2026-04-23 03:33 32.72754 -117.16449 479 ft 142 kts 287°
2026-04-23 03:33 32.73016 -117.17584 136 ft 142 kts 289°
2026-04-23 03:33 32.73277 -117.18619 29 ft 115 kts 285°
2026-04-23 03:33 32.73457 -117.19365 23 ft 53 kts 285°
2026-04-23 03:34 32.73418 -117.19522 27 ft 14 kts 232°
2026-04-23 03:34 32.73368 -117.19629 22 ft 11 kts 244°
2026-04-23 03:34 32.73356 -117.19652 21 ft 1 kts 210°
2026-04-23 03:34 32.73341 -117.19648 20 ft 5 kts 176°
2026-04-23 03:35 32.73331 -117.19646 20 ft 0 kts 169°